Погода в Эйдхафуши

Мальдивы     5°06′10″N   73°04′15″E
темп.,
°C
ветер,
м/с
пор.,
м/с
влажн.,
%
обл.,
%
осадки,
мм/ч
давл.,
гПа
погр.,
м
4 марта, чт
чт423:00+28св566563 0.0 10111027
02:00+28св56680 0.0 10091234
05:00+28всв46662 0.0 10091383
08:00+28всв66630 0.0 10111373
11:00+28всв55601 0.0 10121148
14:00+28всв44590 0.0 10091071
17:00+28в446231 0.0 10091047
20:00+28всв456431 0.0 10111082
5 марта, пт
пт523:00+28в667218 0.0 10121082
02:00+28в777723 0.2 1009902
05:00+28в887745 0.8 1009957
08:00+28в897721 0.5 1012975
11:00+28в897510 0.5 10131195
14:00+28в887311 0.0 10101172
17:00+28в78726 0.1 10091069
20:00+28в77740 0.0 1011979
6 марта, сб
сб623:00+28в667317 0.0 1012887
02:00+28в55740 0.0 1010954
05:00+28вюв44701 0.0 1010991
08:00+28в447023 0.0 1013935
11:00+28в447030 0.0 1014963
14:00+28всв447034 0.0 10101046
17:00+29св446445 0.0 10101065
20:00+28св44670 0.0 10121083
7 марта, вс
вс723:00+28св55700 0.0 10131082
02:00+28св33655 0.0 10101145
05:00+28всв33646 0.0 10101132
08:00+28всв55673 0.0 10121010
11:00+28св55672 0.0 1012978
14:00+28св55690 0.0 10091153
17:00+28ссв56692 0.0 10081023
20:00+28ссв45720 0.0 10101006
8 марта, пн
пн823:00+28св34684 0.0 1011900
02:00+28в126616 0.0 1009981
05:00+28вюв226739 0.0 1009994
08:00+28всв346898 0.0 10111062
11:00+28всв456972 0.0 10121114
14:00+28св556910 0.0 10081064
17:00+29всв456725 0.0 10081183
20:00+29всв446894 0.0 10111161